GW0701 Weather Reports


Display with metric or nautical units.
time (UTC)temp
F
wind
direction
speed
MPH
gust
MPH
rain 1hr
in
rain 24hr
in
rain mn
in
humidity
%
barometer
mb
20260903213141 98 186 5.0 6.0 0.00 0.00 0.00 51 1012.2
20260903212636 98 257 0.0 1.0 0.00 0.00 0.00 54 1012.1
20260903212131 98 230 0.0 1.0 0.00 0.00 0.00 51 1012.0
20260903211626 98 241 2.0 3.0 0.00 0.00 0.00 52 1012.0
20260903211124 97 200 1.0 2.0 0.00 0.00 0.00 56 1012.1
20260903210618 96 225 1.0 1.0 0.00 0.00 0.00 55 1012.2
20260903210114 97 193 6.0 8.0 0.00 0.00 0.00 53 1012.3
20260903205613 98 199 4.0 5.0 0.00 0.00 0.00 52 1012.3
20260903205107 97 219 2.0 3.0 0.00 0.00 0.00 51 1012.2
20260903204603 96 214 2.0 3.0 0.00 0.00 0.00 56 1012.4
20260903204058 96 206 3.0 5.0 0.00 0.00 0.00 55 1012.1
20260903203553 97 202 3.0 3.0 0.00 0.00 0.00 56 1012.5
20260903203048 97 247 1.0 1.0 0.00 0.00 0.00 55 1012.2
20260903202544 98 203 2.0 2.0 0.00 0.00 0.00 55 1012.4
20260903202039 98 214 1.0 1.0 0.00 0.00 0.00 53 1012.4
20260903201533 97 247 3.0 5.0 0.00 0.00 0.00 53 1012.5
20260903201033 97 252 2.0 2.0 0.00 0.00 0.00 55 1012.3
20260903200528 96 172 4.0 5.0 0.00 0.00 0.00 55 1012.3
20260903200023 97 174 4.0 5.0 0.00 0.00 0.00 54 1012.4
20260903195519 96 187 2.0 2.0 0.00 0.00 0.00 54 1012.4
20260903195015 98 228 1.0 2.0 0.00 0.00 0.00 55 1012.4
20260903194509 97 196 5.0 6.0 0.00 0.00 0.00 54 1012.5
20260903194005 96 225 0.0 1.0 0.00 0.00 0.00 56 1012.4
20260903193501 97 194 5.0 7.0 0.00 0.00 0.00 56 1012.5
20260903192955 96 234 1.0 2.0 0.00 0.00 0.00 57 1012.5
20260903192453 96 181 4.0 6.0 0.00 0.00 0.00 57 1012.4
20260903191947 96 225 2.0 3.0 0.00 0.00 0.00 55 1012.6
20260903191443 97 240 1.0 1.0 0.00 0.00 0.00 55 1012.7
20260903190942 96 222 3.0 3.0 0.00 0.00 0.00 58 1012.5
20260903190437 95 179 3.0 3.0 0.00 0.00 0.00 57 1012.8
20260903185937 97 276 5.0 7.0 0.00 0.00 0.00 56 1012.6
20260903185433 96 242 1.0 2.0 0.00 0.00 0.00 54 1012.7
20260903184927 95 226 2.0 2.0 0.00 0.00 0.00 54 1012.8
20260903184424 95 239 1.0 2.0 0.00 0.00 0.00 61 1012.9
20260903183924 95 233 2.0 2.0 0.00 0.00 0.00 58 1012.7
20260903183419 96 257 3.0 3.0 0.00 0.00 0.00 58 1012.9
20260903182918 95 206 2.0 2.0 0.00 0.00 0.00 57 1013.1
20260903182417 95 252 2.0 2.0 0.00 0.00 0.00 57 1013.1
20260903181912 95 197 2.0 2.0 0.00 0.00 0.00 58 1012.9
20260903181407 95 223 4.0 6.0 0.00 0.00 0.00 57 1013.2
20260903180907 95 229 3.0 3.0 0.00 0.00 0.00 56 1013.3
20260903180407 95 274 3.0 3.0 0.00 0.00 0.00 58 1013.4
20260903175901 94 235 0.0 1.0 0.00 0.00 0.00 59 1013.3
20260903175400 94 242 4.0 5.0 0.00 0.00 0.00 57 1013.3
20260903174855 93 199 3.0 3.0 0.00 0.00 0.00 60 1013.5
20260903174350 94 228 2.0 2.0 0.00 0.00 0.00 58 1013.5
20260903173845 95 262 2.0 2.0 0.00 0.00 0.00 60 1013.6
20260903173340 94 220 2.0 2.0 0.00 0.00 0.00 60 1013.6
20260903172836 93 223 2.0 2.0 0.00 0.00 0.00 60 1013.7
20260903172330 92 264 3.0 5.0 0.00 0.00 0.00 60 1013.7
20260903171826 93 233 4.0 5.0 0.00 0.00 0.00 62 1013.8
20260903171321 92 218 2.0 3.0 0.00 0.00 0.00 62 1013.7
20260903170820 92 235 2.0 3.0 0.00 0.00 0.00 62 1013.8
20260903170316 92 261 3.0 5.0 0.00 0.00 0.00 62 1013.8
20260903165814 91 215 2.0 2.0 0.00 0.00 0.00 63 1013.9
20260903165308 92 210 2.0 3.0 0.00 0.00 0.00 62 1013.9
20260903164803 92 231 3.0 3.0 0.00 0.00 0.00 64 1013.8
20260903164259 92 239 3.0 3.0 0.00 0.00 0.00 65 1013.9
20260903163757 90 222 1.0 2.0 0.00 0.00 0.00 65 1013.9
20260903163255 90 206 1.0 2.0 0.00 0.00 0.00 65 1014.0
20260903162752 92 244 2.0 2.0 0.00 0.00 0.00 61 1014.1
20260903162246 91 227 1.0 2.0 0.00 0.00 0.00 65 1014.2
20260903161742 90 270 1.0 2.0 0.00 0.00 0.00 64 1013.8
20260903161237 90 238 3.0 5.0 0.00 0.00 0.00 64 1014.0
20260903160733 91 256 4.0 5.0 0.00 0.00 0.00 64 1014.2
20260903160231 91 203 1.0 1.0 0.00 0.00 0.00 64 1014.1
20260903155730 89 238 3.0 5.0 0.00 0.00 0.00 66 1014.1
20260903155225 88 278 5.0 6.0 0.00 0.00 0.00 66 1014.3
20260903154721 88 257 3.0 5.0 0.00 0.00 0.00 67 1014.0
20260903154217 88 250 3.0 3.0 0.00 0.00 0.00 68 1014.1
20260903153712 88 229 1.0 1.0 0.00 0.00 0.00 70 1014.2
20260903153208 87 234 1.0 1.0 0.00 0.00 0.00 69 1014.1
20260903152704 87 211 1.0 2.0 0.00 0.00 0.00 69 1014.3
20260903152200 87 170 1.0 1.0 0.00 0.00 0.00 69 1014.1
20260903151700 88 230 3.0 5.0 0.00 0.00 0.00 68 1014.2
20260903151155 87 231 2.0 2.0 0.00 0.00 0.00 69 1014.3
20260903150655 87 233 2.0 2.0 0.00 0.00 0.00 70 1014.3
20260903150150 87 255 3.0 3.0 0.00 0.00 0.00 69 1014.0
20260903145650 87 232 2.0 3.0 0.00 0.00 0.00 69 1014.2
20260903145145 86 218 3.0 5.0 0.00 0.00 0.00 70 1014.0
20260903144643 87 180 5.0 6.0 0.00 0.00 0.00 69 1014.1
20260903144140 86 220 2.0 2.0 0.00 0.00 0.00 70 1013.8
20260903143636 86 226 2.0 2.0 0.00 0.00 0.00 71 1013.9
20260903143131 86 203 1.0 1.0 0.00 0.00 0.00 73 1014.0
20260903142627 85 225 2.0 2.0 0.00 0.00 0.00 73 1013.9
20260903142123 84 191 3.0 5.0 0.00 0.00 0.00 73 1013.9
20260903141618 84 192 4.0 5.0 0.00 0.00 0.00 73 1014.0
20260903141108 84 210 3.0 5.0 0.00 0.00 0.00 74 1014.0
20260903140604 84 190 1.0 2.0 0.00 0.00 0.00 75 1013.9
20260903140059 83 218 1.0 1.0 0.00 0.00 0.00 76 1014.1
20260903135554 83 213 1.0 2.0 0.00 0.00 0.00 76 1013.9
20260903135049 82 235 1.0 2.0 0.00 0.00 0.00 77 1013.9
20260903134548 82 233 3.0 3.0 0.00 0.00 0.00 77 1013.8
20260903134044 81 237 2.0 2.0 0.00 0.00 0.00 79 1014.0
20260903133541 81 245 2.0 3.0 0.00 0.00 0.00 78 1014.2
20260903133037 81 227 2.0 2.0 0.00 0.00 0.00 79 1014.1
20260903132532 80 220 3.0 3.0 0.00 0.00 0.00 80 1014.1
20260903132027 80 211 2.0 3.0 0.00 0.00 0.00 80 1013.8
20260903131522 80 227 1.0 2.0 0.00 0.00 0.00 80 1014.0
20260903131021 80 229 1.0 2.0 0.00 0.00 0.00 81 1013.9
20260903130515 79 210 1.0 2.0 0.00 0.00 0.00 81 1014.0
20260903130015 79 192 3.0 3.0 0.00 0.00 0.00 82 1013.8
20260903125514 79 214 1.0 1.0 0.00 0.00 0.00 83 1014.1
20260903125009 78 184 1.0 1.0 0.00 0.00 0.00 83 1013.8
20260903124504 78 197 2.0 2.0 0.00 0.00 0.00 84 1014.0
20260903124003 78 210 1.0 1.0 0.00 0.00 0.00 84 1013.8
20260903123502 78 221 2.0 2.0 0.00 0.00 0.00 84 1013.8
20260903123001 77 231 0.0 1.0 0.00 0.00 0.00 86 1013.6
20260903122456 76 206 2.0 2.0 0.00 0.00 0.00 87 1013.8
20260903121955 76 207 2.0 2.0 0.00 0.00 0.00 88 1013.7
20260903121450 75 197 1.0 1.0 0.00 0.00 0.00 89 1014.0
20260903120946 75 195 2.0 2.0 0.00 0.00 0.00 89 1013.6
20260903120445 75 189 0.0 1.0 0.00 0.00 0.00 90 1013.8
20260903115944 75 195 0.0 0.0 0.00 0.00 0.00 91 1013.5
20260903115444 75 197 0.0 0.0 0.00 0.00 0.00 91 1013.8
20260903114939 75 197 0.0 0.0 0.00 0.00 0.00 91 1013.6
20260903114434 75 204 0.0 0.0 0.00 0.00 0.00 90 1013.6
20260903113929 75 220 1.0 1.0 0.00 0.00 0.00 90 1013.5
20260903113426 75 220 3.0 3.0 0.00 0.00 0.00 90 1013.3
20260903112921 75 190 0.0 0.0 0.00 0.00 0.00 89 1013.3
20260903112416 75 196 2.0 2.0 0.00 0.00 0.00 89 1013.3
20260903111915 75 184 2.0 2.0 0.00 0.00 0.00 89 1013.2
20260903111415 75 201 1.0 1.0 0.00 0.00 0.00 89 1013.1
20260903110912 75 190 1.0 1.0 0.00 0.00 0.00 88 1013.1
20260903110407 75 215 1.0 1.0 0.00 0.00 0.00 89 1013.1
20260903105902 75 205 1.0 1.0 0.00 0.00 0.00 89 1012.9
20260903105357 75 221 0.0 0.0 0.00 0.00 0.00 90 1013.0
20260903104856 75 239 0.0 0.0 0.00 0.00 0.00 89 1013.0
20260903104351 75 226 0.0 0.0 0.00 0.00 0.00 89 1013.1
20260903103848 76 204 1.0 2.0 0.00 0.00 0.00 89 1013.2
20260903103344 76 204 1.0 1.0 0.00 0.00 0.00 89 1012.8
20260903102839 76 221 0.0 1.0 0.00 0.00 0.00 89 1013.0
20260903102338 76 229 1.0 1.0 0.00 0.00 0.00 89 1012.9
20260903101833 76 229 0.0 0.0 0.00 0.00 0.00 88 1013.0
20260903101328 76 222 0.0 0.0 0.00 0.00 0.00 87 1012.9
20260903100824 76 206 2.0 2.0 0.00 0.00 0.00 87 1012.9
20260903100323 76 189 1.0 1.0 0.00 0.00 0.00 87 1013.0
20260903095821 76 225 1.0 1.0 0.00 0.00 0.00 88 1013.1
20260903095315 76 205 1.0 1.0 0.00 0.00 0.00 87 1013.0
20260903094810 76 202 1.0 1.0 0.00 0.00 0.00 87 1013.0
20260903094305 76 218 1.0 1.0 0.00 0.00 0.00 87 1012.9
20260903093801 77 236 1.0 1.0 0.00 0.00 0.00 87 1013.1
20260903093256 77 195 0.0 1.0 0.00 0.00 0.00 87 1013.0
20260903092755 77 243 0.0 1.0 0.00 0.00 0.00 87 1012.7
20260903092245 77 214 0.0 1.0 0.00 0.00 0.00 87 1012.8
20260903091744 77 228 2.0 3.0 0.00 0.00 0.00 87 1012.9
20260903091238 77 222 2.0 2.0 0.00 0.00 0.00 86 1012.8
20260903090734 77 221 0.0 1.0 0.00 0.00 0.00 86 1012.9
20260903090233 77 195 3.0 3.0 0.00 0.00 0.00 86 1013.1
20260903085732 77 202 2.0 3.0 0.00 0.00 0.00 86 1012.8
20260903085227 77 200 2.0 2.0 0.00 0.00 0.00 86 1012.8
20260903084724 77 207 0.0 1.0 0.00 0.00 0.00 86 1012.9
20260903084220 77 201 0.0 1.0 0.00 0.00 0.00 86 1012.9
20260903083715 78 210 0.0 1.0 0.00 0.00 0.00 85 1012.7
20260903083209 78 176 0.0 1.0 0.00 0.00 0.00 85 1012.9
20260903082703 78 185 2.0 2.0 0.00 0.00 0.00 84 1013.0
20260903082159 78 187 3.0 3.0 0.00 0.00 0.00 84 1012.9
20260903081659 78 207 1.0 1.0 0.00 0.00 0.00 84 1012.7
20260903081155 78 209 1.0 2.0 0.00 0.00 0.00 83 1012.8
20260903080651 78 232 1.0 1.0 0.00 0.00 0.00 83 1012.9
20260903080149 78 214 1.0 1.0 0.00 0.00 0.00 83 1013.0
20260903075647 79 210 1.0 1.0 0.00 0.00 0.00 83 1012.8
20260903075143 79 196 2.0 2.0 0.00 0.00 0.00 82 1012.7
20260903074642 79 214 1.0 1.0 0.00 0.00 0.00 82 1012.8
20260903074137 79 216 1.0 1.0 0.00 0.00 0.00 82 1012.6
20260903073632 79 204 1.0 2.0 0.00 0.00 0.00 82 1013.0
20260903073128 79 227 2.0 2.0 0.00 0.00 0.00 81 1012.8
20260903072623 79 225 1.0 1.0 0.00 0.00 0.00 81 1013.0
20260903072119 79 219 1.0 2.0 0.00 0.00 0.00 81 1013.0
20260903071616 80 220 3.0 5.0 0.00 0.00 0.00 81 1012.8
20260903071111 80 219 1.0 1.0 0.00 0.00 0.00 80 1012.8
20260903070611 80 217 1.0 1.0 0.00 0.00 0.00 80 1013.0
20260903070107 80 212 2.0 2.0 0.00 0.00 0.00 80 1013.0
20260903065606 80 231 2.0 2.0 0.00 0.00 0.00 80 1013.0
20260903065100 80 228 1.0 2.0 0.00 0.00 0.00 79 1013.2
20260903064555 80 217 1.0 2.0 0.00 0.00 0.00 80 1013.1
20260903064050 80 216 2.0 2.0 0.00 0.00 0.00 79 1013.2
20260903063545 81 194 2.0 3.0 0.00 0.00 0.00 78 1013.2
20260903063041 81 227 2.0 2.0 0.00 0.00 0.00 78 1013.2
20260903062536 81 227 0.0 1.0 0.00 0.00 0.00 78 1013.2
20260903062031 81 195 1.0 2.0 0.00 0.00 0.00 77 1012.8
20260903061527 81 223 3.0 3.0 0.00 0.00 0.00 77 1013.0
20260903061026 81 194 2.0 3.0 0.00 0.00 0.00 77 1013.3
20260903060526 81 215 2.0 2.0 0.00 0.00 0.00 77 1013.1
20260903060021 81 229 3.0 3.0 0.00 0.00 0.00 77 1013.1
20260903055518 81 224 1.0 2.0 0.00 0.00 0.00 77 1013.0
20260903055018 81 213 1.0 1.0 0.00 0.00 0.00 77 1013.1
20260903054513 81 219 2.0 2.0 0.00 0.00 0.00 77 1013.1
20260903054009 81 220 1.0 1.0 0.00 0.00 0.00 78 1013.1
20260903053508 81 241 1.0 1.0 0.00 0.00 0.00 77 1013.0
20260903053005 81 212 1.0 1.0 0.00 0.00 0.00 77 1013.3
20260903052501 81 234 0.0 0.0 0.00 0.00 0.00 77 1013.1
20260903051956 81 214 1.0 1.0 0.00 0.00 0.00 76 1013.1
20260903051451 81 217 1.0 2.0 0.00 0.00 0.00 77 1013.1
20260903050947 81 229 0.0 1.0 0.00 0.00 0.00 77 1013.3
20260903050445 81 200 1.0 2.0 0.00 0.00 0.00 76 1013.3
20260903045940 82 218 1.0 1.0 0.00 0.00 0.00 76 1013.1
20260903045436 81 221 1.0 1.0 0.00 0.00 0.00 77 1013.4
20260903044932 81 220 1.0 2.0 0.00 0.00 0.00 77 1013.2
20260903044432 82 212 1.0 1.0 0.00 0.00 0.00 77 1013.2
20260903043929 82 218 1.0 1.0 0.00 0.00 0.00 76 1013.1
20260903043424 82 211 0.0 1.0 0.00 0.00 0.00 76 1013.2
20260903042923 82 202 1.0 2.0 0.00 0.00 0.00 76 1013.1
20260903042418 82 206 1.0 2.0 0.00 0.00 0.00 76 1013.0
20260903041914 82 198 1.0 1.0 0.00 0.00 0.00 76 1013.1
20260903041410 82 210 0.0 1.0 0.00 0.00 0.00 77 1013.2
20260903040906 82 194 0.0 1.0 0.00 0.00 0.00 77 1012.9
20260903040405 82 218 1.0 1.0 0.00 0.00 0.00 76 1012.9
20260903035901 82 216 0.0 1.0 0.00 0.00 0.00 76 1013.3
20260903035356 83 227 0.0 0.0 0.00 0.00 0.00 75 1013.2
20260903034851 82 217 1.0 2.0 0.00 0.00 0.00 75 1013.0
20260903034346 82 228 1.0 2.0 0.00 0.00 0.00 75 1013.0
20260903033836 83 235 1.0 1.0 0.00 0.00 0.00 75 1013.2
20260903033331 83 227 0.0 1.0 0.00 0.00 0.00 75 1013.0
20260903032830 83 217 2.0 2.0 0.00 0.00 0.00 73 1013.1
20260903032327 83 219 1.0 1.0 0.00 0.00 0.00 73 1013.0
20260903031822 84 184 1.0 2.0 0.00 0.00 0.00 73 1013.1
20260903031321 83 221 1.0 1.0 0.00 0.00 0.00 73 1013.0
20260903030817 84 256 1.0 1.0 0.00 0.00 0.00 73 1012.9
20260903030313 84 206 0.0 1.0 0.00 0.00 0.00 73 1013.1
20260903025808 84 205 2.0 2.0 0.00 0.00 0.00 72 1013.2
20260903025306 84 210 1.0 1.0 0.00 0.00 0.00 73 1012.8
20260903024758 84 191 1.0 2.0 0.00 0.00 0.00 73 1013.0
20260903024258 84 200 2.0 3.0 0.00 0.00 0.00 73 1013.0
20260903023753 84 183 2.0 2.0 0.00 0.00 0.00 72 1013.0
20260903023248 84 208 1.0 2.0 0.00 0.00 0.00 73 1012.9
20260903022743 84 194 1.0 2.0 0.00 0.00 0.00 72 1012.9
20260903022242 85 200 1.0 1.0 0.00 0.00 0.00 72 1012.9
20260903021742 85 219 2.0 2.0 0.00 0.00 0.00 72 1012.8
20260903021237 85 220 1.0 1.0 0.00 0.00 0.00 71 1012.9
20260903020737 85 212 0.0 0.0 0.00 0.00 0.00 72 1012.8
20260903020231 85 201 2.0 2.0 0.00 0.00 0.00 71 1012.7
20260903015727 86 197 1.0 2.0 0.00 0.00 0.00 71 1012.8
20260903015222 86 198 1.0 1.0 0.00 0.00 0.00 71 1012.8
20260903014718 86 198 1.0 1.0 0.00 0.00 0.00 71 1012.6
20260903014217 86 201 2.0 2.0 0.00 0.00 0.00 71 1012.6
20260903013712 86 197 0.0 1.0 0.00 0.00 0.00 71 1012.4
20260903013211 86 189 1.0 1.0 0.00 0.00 0.00 71 1012.7
20260903012709 86 188 1.0 1.0 0.00 0.00 0.00 70 1012.5
20260903012204 87 207 0.0 1.0 0.00 0.00 0.00 69 1012.4
20260903011659 87 206 0.0 0.0 0.00 0.00 0.00 71 1012.5
20260903011158 87 203 1.0 1.0 0.00 0.00 0.00 69 1012.4
20260903010654 87 213 0.0 0.0 0.00 0.00 0.00 69 1012.4
20260903010153 87 207 1.0 1.0 0.00 0.00 0.00 69 1012.4
20260903005653 88 188 0.0 0.0 0.00 0.00 0.00 69 1012.5
20260903005148 88 191 0.0 1.0 0.00 0.00 0.00 68 1012.4
20260903004643 88 184 1.0 1.0 0.00 0.00 0.00 68 1012.4
20260903004138 88 176 1.0 2.0 0.00 0.00 0.00 70 1012.4
20260903003633 88 205 1.0 1.0 0.00 0.00 0.00 70 1012.5
20260903003128 88 204 0.0 0.0 0.00 0.00 0.00 70 1012.6
20260903002624 89 204 1.0 1.0 0.00 0.00 0.00 70 1012.5
20260903002117 89 212 0.0 0.0 0.00 0.00 0.00 69 1012.4
20260903001613 88 212 0.0 1.0 0.00 0.00 0.00 69 1012.5
20260903001107 88 212 0.0 0.0 0.00 0.00 0.00 72 1012.5
20260903000603 89 212 0.0 0.0 0.00 0.00 0.00 74 1012.3
20260902235600 90 212 0.0 0.0 0.00 0.00 0.00 72 1012.3
20260902235056 91 212 0.0 0.0 0.00 0.00 0.00 70 1012.4
20260902234550 91 213 0.0 0.0 0.00 0.00 0.00 66 1012.5
20260902234048 92 213 0.0 0.0 0.00 0.00 0.00 66 1012.3
20260902233543 92 213 0.0 0.0 0.00 0.00 0.00 66 1012.5
20260902233038 92 216 0.0 0.0 0.00 0.00 0.00 64 1012.5
20260902232537 93 216 1.0 1.0 0.00 0.00 0.00 62 1012.4
20260902232032 93 204 1.0 2.0 0.00 0.00 0.00 61 1012.3
20260902231526 94 210 1.0 2.0 0.00 0.00 0.00 59 1012.2
20260902231021 95 227 1.0 1.0 0.00 0.00 0.00 58 1012.5
20260902230520 94 227 1.0 1.0 0.00 0.00 0.00 56 1012.5
20260902230015 95 199 1.0 2.0 0.00 0.00 0.00 58 1012.4
20260902225510 95 189 2.0 3.0 0.00 0.00 0.00 56 1012.5
20260902225010 96 190 2.0 2.0 0.00 0.00 0.00 53 1012.4
20260902224508 96 198 1.0 2.0 0.00 0.00 0.00 54 1012.5
20260902224005 96 206 2.0 3.0 0.00 0.00 0.00 53 1012.6
20260902223501 96 208 2.0 2.0 0.00 0.00 0.00 52 1012.6
20260902223000 96 204 1.0 2.0 0.00 0.00 0.00 51 1012.6
20260902222458 96 218 1.0 1.0 0.00 0.00 0.00 52 1012.5
20260902221952 96 207 1.0 1.0 0.00 0.00 0.00 51 1012.5
20260902221452 96 209 1.0 1.0 0.00 0.00 0.00 54 1012.5
20260902220947 96 211 3.0 3.0 0.00 0.00 0.00 53 1012.6
20260902220441 97 191 3.0 3.0 0.00 0.00 0.00 53 1012.7
20260902215936 98 194 2.0 2.0 0.00 0.00 0.00 49 1012.7
20260902215432 98 232 1.0 1.0 0.00 0.00 0.00 48 1012.6
20260902214928 98 186 2.0 2.0 0.00 0.00 0.00 47 1012.8
20260902214426 99 187 3.0 3.0 0.00 0.00 0.00 48 1012.8
20260902213921 99 193 2.0 3.0 0.00 0.00 0.00 47 1012.7
20260902213418 98 251 1.0 1.0 0.00 0.00 0.00 45 1012.7